Regional Weather Roundup
Issued by NWS

Home | Current Version | Previous Version | Text Only | Print | Product List | Glossary Off
Versions: 1 2 3 4 5 6 7 8 9 10 11 12 13 14 15 16 17 18 19 20 21 22 23 24 25 26 27 28 29 30 31 32 33 34 35 36 37 38 39 40 41 42 43 44 45 46 47 48 49 50

000
ASUS45 KCYS 041810
RWRWY

WYOMING REGIONAL WEATHER ROUNDUP
NATIONAL WEATHER SERVICE CHEYENNE WY
1200 PM MDT WED MAY 04 2016

NOTE:  "FAIR" INDICATES FEW OR NO CLOUDS BELOW 12,000 FEET
WITH NO SIGNIFICANT WEATHER AND/OR OBSTRUCTIONS TO VISIBILITY.

WYZ001-041900-
YELLOWSTONE NATIONAL PARK

CITY           SKY/WX    TMP DP  RH WIND       PRES   REMARKS
LK YELLOWSTONE   N/A     52  24  33 CALM      30.31S
6HR MIN TEMP:  26; 6HR MAX TEMP:  53;

W YELLOWSTONE  NOT AVBL

$$
WYZ002>013-054>058-071-098>099-041900-
NORTHERN WYOMING

CITY           SKY/WX    TMP DP  RH WIND       PRES   REMARKS
JACKSON        SUNNY     61  28  29 S6        30.24F
CODY           FAIR      73  27  17 SW15      30.10F
GREYBULL       FAIR      76  31  19 SE10      30.07F
6HR MIN TEMP:  45; 6HR MAX TEMP:  76;

WORLAND        FAIR      73  35  25 S6        30.10F
6HR MIN TEMP:  46; 6HR MAX TEMP:  73;

SHERIDAN       FAIR      77  42  28 CALM      30.07F
6HR MIN TEMP:  37; 6HR MAX TEMP:  78;

BUFFALO        FAIR      73  31  21 SE9       30.13F
6HR MIN TEMP:  49; 6HR MAX TEMP:  73;

GILLETTE       FAIR      73  40  30 S14       30.10F
6HR MIN TEMP:  44; 6HR MAX TEMP:  73;

HULETT         FAIR      72  36  26 SW13      30.13F
NEWCASTLE      FAIR      70  32  24 SE8G16    30.16F

$$
WYZ014>020-022>026-101>103-041900-
CENTRAL WYOMING

CITY           SKY/WX    TMP DP  RH WIND       PRES   REMARKS
BIG PINEY      FAIR      64  28  25 S10       30.28F
6HR MIN TEMP:  28; 6HR MAX TEMP:  64;

PINEDALE       FAIR      63  25  23 S7        30.28F
DUBOIS         FAIR      64  12  13 SW7G20    30.24S
LANDER         FAIR      67  34  29 VRB3      30.17F
6HR MIN TEMP:  43; 6HR MAX TEMP:  67;

RIVERTON       FAIR      64  41  42 E3        30.19F
6HR MIN TEMP:  40; 6HR MAX TEMP:  65;

CASPER         FAIR      70  37  29 SW13G26   30.18F
6HR MIN TEMP:  35; 6HR MAX TEMP:  70;

DOUGLAS        FAIR      70  35  27 VRB3      30.19F
6HR MIN TEMP:  34; 6HR MAX TEMP:  70;


$$
WYZ021-027>030-104>119-041900-
SOUTHERN WYOMING

CITY           SKY/WX    TMP DP  RH WIND       PRES   REMARKS
EVANSTON       FAIR      66  21  18 SW21G28   30.26F
6HR MIN TEMP:  41; 6HR MAX TEMP:  67;

KEMMERER         N/A     64  19  17 S10G16    30.28F
FORT BRIDGER   FAIR      66  24  20 NE3       30.29F
ROCK SPRINGS   FAIR      66  27  23 SW9       30.26F
6HR MIN TEMP:  39; 6HR MAX TEMP:  66;

DIXON          FAIR      67  30  25 W3        30.30F
RAWLINS        FAIR      68  25  19 W10G17    30.28F
6HR MIN TEMP:  30; 6HR MAX TEMP:  68;

SARATOGA       FAIR      64  27  24 N5        30.30F
LARAMIE        FAIR      62  26  25 NE8       30.29F
6HR MIN TEMP:  30; 6HR MAX TEMP:  62;

CHEYENNE       FAIR      66  25  21 CALM      30.25F
6HR MIN TEMP:  39; 6HR MAX TEMP:  68;

TORRINGTON     FAIR      70  42  36 SE8       30.17F
6HR MIN TEMP:  39; 6HR MAX TEMP:  70;

PINE BLUFFS    FAIR      68  34  28 NW6       30.23F

$$



USA.gov is the U.S. government's official web portal to all federal, state and local government web resources and services.